Weather History for Faith, SD

Change the Weather History Date:

Thursday, October 3, 2013

  Actual Average Record
Temperature  
Mean Temperature 50 °F 52 °F  
Max Temperature 57 °F 64 °F 86 °F (2011)
Min Temperature 42 °F 39 °F 30 °F (1999)
Degree Days  
Heating Degree Days 15 13  
Month to date heating degree days 31 39  
Since 1 July heating degree days 126 271  
Cooling Degree Days 0 0  
Month to date cooling degree days 0 0  
Year to date cooling degree days 720 634  
Moisture  
Dew Point 40 °F    
Average Humidity 72    
Maximum Humidity 93    
Minimum Humidity 50    
Precipitation  
Precipitation 0.10 in 0.04 in 0.15 in (2000)
Month to date precipitation 0.10 0.11  
Year to date precipitation 13.57 15.29  
Sea Level Pressure  
Sea Level Pressure 30.01 in    
Wind  
Wind Speed 16 mph (NNE)    
Max Wind Speed 33 mph    
Max Gust Speed 44 mph    
T = Trace of Precipitation, MM = Missing Value Source: NWS Daily Summary

Daily Weather History Graph

Daily Weather History Graph

Search for Another Location

Airport:

Trip Planner

Search our weather history database for the weather conditions in past years. The results will help you decide how hot, cold, wet, or windy it might be!

Date:

Astronomy

Oct. 03, 2013 Rise Set
Actual Time 6:48 AM MDT 6:24 PM MDT
Civil Twilight 6:19 AM MDT 6:53 PM MDT
Nautical Twilight 5:45 AM MDT 7:27 PM MDT
Astronomical Twilight 5:11 AM MDT 8:01 PM MDT
Moon 5:22 AM MDT (10/3) 5:34 PM MDT (10/3)
Length of Visible Light 12h 33m
Length of Day
11h 35m
Waning Crescent, 2% of the Moon is Illuminated
Oct 3
Waning Crescent
Oct 4
New
Oct 11
First Quarter
Oct 18
Full
Oct 26
Last Quarter

Hourly Weather History & Observations

Time (MDT) Temp. Windchill Dew Point Humidity Pressure Visibility Wind Dir Wind Speed Gust Speed Precip Events Conditions
12:56 AM 46.0 °F 44.8 °F 42.1 °F 86% 29.96 in - NE 3.5 mph - N/A   Unknown
1:56 AM 46.0 °F 41.9 °F 42.1 °F 86% 29.97 in - North 8.1 mph - N/A   Unknown
2:56 AM 46.0 °F 41.4 °F 43.0 °F 89% 29.98 in - NNW 9.2 mph - N/A   Unknown
3:56 AM 46.9 °F - 43.0 °F 86% 29.97 in - NNE 8.1 mph - N/A   Unknown
4:56 AM 46.0 °F 42.5 °F 44.1 °F 93% 29.97 in - North 6.9 mph - N/A   Unknown
5:56 AM 46.9 °F - 43.0 °F 86% 30.00 in - North 8.1 mph - N/A   Unknown
6:56 AM 46.0 °F 41.4 °F 43.0 °F 89% 29.99 in - North 9.2 mph - N/A   Unknown
7:56 AM 46.9 °F - 41.0 °F 80% 29.99 in - NNE 11.5 mph - N/A   Unknown
8:56 AM 52.0 °F - 39.0 °F 61% 29.98 in - NE 21.9 mph 31.1 mph N/A   Unknown
9:56 AM 52.0 °F - 39.0 °F 61% 30.00 in - NE 16.1 mph 23.0 mph N/A   Unknown
10:56 AM 54.0 °F - 39.0 °F 57% 30.00 in - NE 15.0 mph - N/A   Unknown
11:56 AM 55.9 °F - 39.0 °F 53% 29.98 in - ENE 19.6 mph - N/A   Unknown
12:56 PM 54.0 °F - 39.0 °F 57% 29.99 in - NE 18.4 mph 26.5 mph N/A   Unknown
1:56 PM 53.1 °F - 39.0 °F 59% 29.99 in - NE 18.4 mph - N/A   Unknown
2:56 PM 53.1 °F - 39.9 °F 61% 30.01 in - NE 16.1 mph - N/A   Unknown
3:56 PM 54.0 °F - 39.0 °F 57% 29.99 in - NE 18.4 mph - N/A   Unknown
4:56 PM 53.1 °F - 36.0 °F 52% 30.00 in - NE 23.0 mph 29.9 mph N/A   Unknown
5:56 PM 51.1 °F - 37.9 °F 61% 30.04 in - NE 18.4 mph - N/A   Unknown
6:56 PM 50.0 °F - 36.0 °F 59% 30.07 in - NE 17.3 mph - N/A   Unknown
7:56 PM 48.0 °F - 37.0 °F 66% 30.11 in - NNE 16.1 mph - N/A   Unknown
8:56 PM 46.0 °F 38.3 °F 37.9 °F 73% 30.06 in - NNE 20.7 mph - 0.01 in   Unknown
10:56 PM 45.0 °F 36.4 °F 39.0 °F 80% 30.08 in - NNE 23.0 mph 33.4 mph 0.01 in   Unknown
11:56 PM 43.0 °F 33.5 °F 37.9 °F 82% 30.08 in - NE 24.2 mph 31.1 mph 0.06 in   Unknown